CLOUDSAT (29107 NORAD) Tracking and Keplerian Element Data

This shows tracking and keplerian element data for the satellite.

Feedback or suggestion? Click here.




ElementValue
Catalog29107
NameCLOUDSAT
Epoch Orbit64951
Epoch Day195.92351206
Epoch Year2018
RAAN140.2364
Inclination98.0784
Eccentricity0.0008169
Argument of Perigee95.8757
Mean Anonmoly264.3376
Mean Motion14.6089169
Decay Rate6.1E-07
L11 29107U 06016A 18195.92351206 .00000061 00000-0 21824-4 0 9992
L22 29107 98.0784 140.2364 0008169 95.8757 264.3376 14.60891690649512

Live tracking and technical data element details for CLOUDSAT (NORAD 29107). CLOUDSAT can be tracked NOW for your location showing map with azimuth and elevation plus other details from your city location.

Track the satellite on the map from your city or location and see movement details for azimuth, elevation, latitude, longitude, range, height, and movement on the map or in text.







IsCatalogInMostPopularTable: catalog: 29107, numindb: 33
Update: records affected: 1



GetName: 29107 CLOUDSAT

Hit Count: updated at: Sun, 15 Jul 2018 22:58:07 GMT